C/2013 N4 ( Borisov )

Japanese version
Home page
Updated on September 27, 2014

---------------------------------------------------------------------

* Profile

Discovery Date July 8, 2013
Magnitude 16.8 mag
Discoverer Gennady Borisov (Crimean Laboratory of the Sternberg Astronomical Institute)

* Pictures

* Orbital Elements

Epoch 2013 Aug. 16.0 TT = JDT 2456520.5
T 2013 Aug. 21.51469 TT                                 MPC
q   1.2104059            (2000.0)            P               Q
z  +0.0208068      Peri.  142.28126     -0.33193429     -0.86951501
 +/-0.0000030      Node   322.61039     +0.65012846     +0.07005290
e   0.9748153      Incl.   37.03491     +0.68348564     -0.48891332
From 255 observations 2013 July 10-2014 Apr. 30, mean residual 0".6.

* Finding Charts

* Magnitudes Graph

        m1 = 8.5 + 5 log d + 17.5 log r

---------------------------------------------------------------------

The orbital elements are published on M.P.E.C. 2014-J58.
The charts are made with StellaNavigator Ver.8 (AstroArts).
The magnitudes graphs are made with Comet for Windows.

---------------------------------------------------------------------

Copyright(C) Seiichi Yoshida (comet@aerith.net). All rights reserved.